| time (UTC) | temp F | wind direction | speed MPH | gust MPH | rain 1hr in | rain 24hr in | rain mn in | humidity % | barometer mb |
| 20260505075503 | 53 | 221 | 1.0 | 3.0 | 0.00 | 0.00 | 0.00 | 77 | 1014.2 |
| 20260505075008 | 54 | 219 | 1.0 | 4.0 | 0.00 | 0.00 | 0.00 | 77 | 1014.4 |
| 20260505074507 | 54 | 234 | 2.0 | 4.0 | 0.00 | 0.00 | 0.00 | 76 | 1014.4 |
| 20260505074004 | 54 | 242 | 2.0 | 4.0 | 0.00 | 0.00 | 0.00 | 76 | 1014.5 |
| 20260505073504 | 55 | 233 | 2.0 | 4.0 | 0.00 | 0.00 | 0.00 | 75 | 1014.3 |
| 20260505073012 | 55 | 245 | 2.0 | 5.0 | 0.00 | 0.00 | 0.00 | 74 | 1014.3 |
| 20260505072504 | 55 | 225 | 2.0 | 5.0 | 0.00 | 0.00 | 0.00 | 74 | 1014.3 |
| 20260505072007 | 56 | 240 | 2.0 | 5.0 | 0.00 | 0.00 | 0.00 | 73 | 1014.3 |
| 20260505071508 | 56 | 250 | 2.0 | 5.0 | 0.00 | 0.00 | 0.00 | 72 | 1014.3 |
| 20260505071006 | 56 | 251 | 2.0 | 4.0 | 0.00 | 0.00 | 0.00 | 72 | 1014.3 |
| 20260505070502 | 56 | 248 | 2.0 | 3.0 | 0.00 | 0.00 | 0.00 | 72 | 1014.2 |
| 20260505070005 | 57 | 241 | 1.0 | 3.0 | 0.00 | 0.00 | 0.00 | 71 | 1014.3 |
| 20260505065502 | 57 | 254 | 2.0 | 3.0 | 0.00 | 0.00 | 0.00 | 70 | 1014.3 |
| 20260505065001 | 57 | 251 | 2.0 | 8.0 | 0.00 | 0.00 | 0.00 | 70 | 1014.3 |
| 20260505064502 | 57 | 256 | 2.0 | 7.0 | 0.00 | 0.00 | 0.00 | 69 | 1014.3 |
| 20260505064001 | 57 | 231 | 3.0 | 5.0 | 0.00 | 0.00 | 0.00 | 69 | 1014.3 |
| 20260505063501 | 58 | 234 | 2.0 | 6.0 | 0.00 | 0.00 | 0.00 | 69 | 1014.3 |
| 20260505063002 | 58 | 236 | 3.0 | 6.0 | 0.00 | 0.00 | 0.00 | 68 | 1014.3 |
| 20260505062501 | 59 | 248 | 3.0 | 7.0 | 0.00 | 0.00 | 0.00 | 67 | 1014.4 |
| 20260505062000 | 59 | 236 | 3.0 | 7.0 | 0.00 | 0.00 | 0.00 | 67 | 1014.4 |
| 20260505061502 | 59 | 224 | 3.0 | 7.0 | 0.00 | 0.00 | 0.00 | 66 | 1014.4 |
| 20260505061001 | 60 | 222 | 3.0 | 8.0 | 0.00 | 0.00 | 0.00 | 66 | 1014.4 |
| 20260505060501 | 60 | 242 | 3.0 | 8.0 | 0.00 | 0.00 | 0.00 | 65 | 1014.6 |
| 20260505060011 | 60 | 244 | 4.0 | 8.0 | 0.00 | 0.00 | 0.00 | 64 | 1014.6 |
| 20260505055502 | 60 | 227 | 4.0 | 7.0 | 0.00 | 0.00 | 0.00 | 63 | 1014.8 |
| 20260505055003 | 61 | 254 | 3.0 | 7.0 | 0.00 | 0.00 | 0.00 | 63 | 1014.8 |
| 20260505054503 | 61 | 261 | 4.0 | 9.0 | 0.00 | 0.00 | 0.00 | 63 | 1014.7 |
| 20260505054001 | 61 | 229 | 4.0 | 9.0 | 0.00 | 0.00 | 0.00 | 63 | 1014.6 |
| 20260505053502 | 61 | 241 | 4.0 | 9.0 | 0.00 | 0.00 | 0.00 | 62 | 1014.6 |
| 20260505053002 | 61 | 236 | 3.0 | 11.0 | 0.00 | 0.00 | 0.00 | 62 | 1014.5 |
| 20260505052501 | 61 | 261 | 4.0 | 11.0 | 0.00 | 0.00 | 0.00 | 62 | 1014.5 |
| 20260505052001 | 61 | 234 | 6.0 | 11.0 | 0.00 | 0.00 | 0.00 | 61 | 1014.5 |
| 20260505051502 | 61 | 235 | 4.0 | 11.0 | 0.00 | 0.00 | 0.00 | 62 | 1014.5 |
| 20260505051002 | 61 | 259 | 5.0 | 11.0 | 0.00 | 0.00 | 0.00 | 63 | 1014.5 |
| 20260505050503 | 61 | 206 | 4.0 | 11.0 | 0.00 | 0.00 | 0.00 | 63 | 1014.5 |
| 20260505041504 | 55 | 202 | 0.0 | 3.0 | 0.00 | 0.00 | 0.00 | 74 | 1014.3 |
| 20260505041001 | 55 | 212 | 0.0 | 4.0 | 0.00 | 0.00 | 0.00 | 74 | 1014.2 |
| 20260505040501 | 55 | 167 | 1.0 | 4.0 | 0.00 | 0.00 | 0.00 | 74 | 1014.2 |
| 20260505040002 | 55 | 196 | 0.0 | 2.0 | 0.00 | 0.00 | 0.00 | 75 | 1014.3 |
| 20260505035505 | 55 | 215 | 1.0 | 2.0 | 0.00 | 0.00 | 0.00 | 74 | 1014.3 |
| 20260505035002 | 55 | 198 | 1.0 | 2.0 | 0.00 | 0.00 | 0.00 | 75 | 1014.2 |
| 20260505034503 | 55 | 195 | 1.0 | 2.0 | 0.00 | 0.00 | 0.00 | 75 | 1014.2 |
| 20260505034002 | 55 | 167 | 0.0 | 2.0 | 0.00 | 0.00 | 0.00 | 74 | 1014.3 |
| 20260505033503 | 55 | 167 | 0.0 | 2.0 | 0.00 | 0.00 | 0.00 | 74 | 1014.4 |
| 20260505033010 | 55 | 207 | 0.0 | 3.0 | 0.00 | 0.00 | 0.00 | 73 | 1014.4 |
| 20260505032502 | 55 | 167 | 1.0 | 3.0 | 0.00 | 0.00 | 0.00 | 74 | 1014.4 |
| 20260505032005 | 55 | 166 | 1.0 | 2.0 | 0.00 | 0.00 | 0.00 | 74 | 1014.3 |
| 20260505031503 | 55 | 175 | 0.0 | 2.0 | 0.00 | 0.00 | 0.00 | 75 | 1014.3 |
| 20260505031007 | 55 | 175 | 0.0 | 2.0 | 0.00 | 0.00 | 0.00 | 74 | 1014.2 |
| 20260505030503 | 55 | 175 | 0.0 | 2.0 | 0.00 | 0.00 | 0.00 | 74 | 1014.2 |
| 20260505030003 | 55 | 175 | 0.0 | 2.0 | 0.00 | 0.00 | 0.00 | 74 | 1014.2 |
| 20260505025504 | 56 | 190 | 0.0 | 2.0 | 0.00 | 0.00 | 0.00 | 73 | 1014.3 |
| 20260505025002 | 56 | 190 | 0.0 | 2.0 | 0.00 | 0.00 | 0.00 | 73 | 1014.4 |
| 20260505024504 | 56 | 171 | 0.0 | 2.0 | 0.00 | 0.00 | 0.00 | 73 | 1014.4 |
| 20260505024005 | 56 | 171 | 0.0 | 1.0 | 0.00 | 0.00 | 0.00 | 73 | 1014.3 |
| 20260505023502 | 56 | 171 | 0.0 | 2.0 | 0.00 | 0.00 | 0.00 | 73 | 1014.4 |
| 20260505023004 | 56 | 171 | 0.0 | 2.0 | 0.00 | 0.00 | 0.00 | 72 | 1014.3 |
| 20260505022503 | 56 | 171 | 0.0 | 2.0 | 0.00 | 0.00 | 0.00 | 72 | 1014.3 |
| 20260505022003 | 56 | 171 | 0.0 | 2.0 | 0.00 | 0.00 | 0.00 | 71 | 1014.2 |
| 20260505021506 | 57 | 175 | 0.0 | 2.0 | 0.00 | 0.00 | 0.00 | 71 | 1014.0 |
| 20260505021002 | 57 | 194 | 0.0 | 3.0 | 0.00 | 0.00 | 0.00 | 71 | 1013.9 |
| 20260505020506 | 57 | 200 | 1.0 | 3.0 | 0.00 | 0.00 | 0.00 | 70 | 1013.9 |
| 20260505020004 | 57 | 191 | 1.0 | 2.0 | 0.00 | 0.00 | 0.00 | 69 | 1013.8 |
| 20260505015502 | 57 | 191 | 1.0 | 2.0 | 0.00 | 0.00 | 0.00 | 69 | 1013.9 |
| 20260505015004 | 57 | 191 | 0.0 | 2.0 | 0.00 | 0.00 | 0.00 | 68 | 1013.8 |
| 20260505014508 | 58 | 191 | 0.0 | 2.0 | 0.00 | 0.00 | 0.00 | 68 | 1013.9 |
| 20260505014005 | 58 | 191 | 0.0 | 2.0 | 0.00 | 0.00 | 0.00 | 67 | 1013.9 |
| 20260505013502 | 58 | 191 | 0.0 | 2.0 | 0.00 | 0.00 | 0.00 | 66 | 1013.9 |
| 20260505013003 | 59 | 191 | 0.0 | 2.0 | 0.00 | 0.00 | 0.00 | 66 | 1013.8 |
| 20260505012502 | 59 | 191 | 0.0 | 2.0 | 0.00 | 0.00 | 0.00 | 65 | 1013.6 |
| 20260505012003 | 59 | 191 | 0.0 | 2.0 | 0.00 | 0.00 | 0.00 | 64 | 1013.5 |
| 20260505011504 | 60 | 222 | 0.0 | 2.0 | 0.00 | 0.00 | 0.00 | 64 | 1013.5 |
| 20260505011003 | 60 | 222 | 0.0 | 2.0 | 0.00 | 0.00 | 0.00 | 64 | 1013.5 |
| 20260505010503 | 61 | 208 | 0.0 | 2.0 | 0.00 | 0.00 | 0.00 | 63 | 1013.6 |
| 20260505010005 | 62 | 212 | 0.0 | 2.0 | 0.00 | 0.00 | 0.00 | 61 | 1013.6 |
| 20260505005504 | 62 | 212 | 0.0 | 2.0 | 0.00 | 0.00 | 0.00 | 60 | 1013.6 |
| 20260505005004 | 63 | 212 | 0.0 | 2.0 | 0.00 | 0.00 | 0.00 | 59 | 1013.6 |
| 20260505004519 | 64 | 212 | 0.0 | 2.0 | 0.00 | 0.00 | 0.00 | 59 | 1013.6 |
| 20260505004005 | 65 | 212 | 1.0 | 2.0 | 0.00 | 0.00 | 0.00 | 58 | 1013.6 |
| 20260505003507 | 66 | 248 | 0.0 | 2.0 | 0.00 | 0.00 | 0.00 | 54 | 1013.6 |
| 20260505003010 | 67 | 248 | 0.0 | 2.0 | 0.00 | 0.00 | 0.00 | 54 | 1013.6 |
| 20260505002503 | 68 | 248 | 0.0 | 3.0 | 0.00 | 0.00 | 0.00 | 52 | 1013.6 |
| 20260505002003 | 69 | 248 | 0.0 | 3.0 | 0.00 | 0.00 | 0.00 | 53 | 1013.7 |
| 20260505001504 | 70 | 252 | 2.0 | 3.0 | 0.00 | 0.00 | 0.00 | 48 | 1013.7 |
| 20260505001002 | 71 | 265 | 1.0 | 7.0 | 0.00 | 0.00 | 0.00 | 48 | 1013.6 |
| 20260505000504 | 71 | 250 | 2.0 | 7.0 | 0.00 | 0.00 | 0.00 | 46 | 1013.8 |
| 20260505000006 | 72 | 242 | 2.0 | 7.0 | 0.00 | 0.00 | 0.00 | 45 | 1013.6 |
| 20260504235502 | 72 | 225 | 3.0 | 9.0 | 0.00 | 0.00 | 0.00 | 42 | 1013.6 |
| 20260504235004 | 73 | 227 | 3.0 | 9.0 | 0.00 | 0.00 | 0.00 | 42 | 1013.6 |
| 20260504234507 | 73 | 253 | 3.0 | 8.0 | 0.00 | 0.00 | 0.00 | 40 | 1013.7 |
| 20260504234006 | 74 | 242 | 3.0 | 6.0 | 0.00 | 0.00 | 0.00 | 41 | 1013.7 |
| 20260504233504 | 74 | 236 | 2.0 | 6.0 | 0.00 | 0.00 | 0.00 | 39 | 1013.8 |
| 20260504233003 | 75 | 238 | 3.0 | 10.0 | 0.00 | 0.00 | 0.00 | 38 | 1013.9 |
| 20260504232508 | 75 | 240 | 6.0 | 10.0 | 0.00 | 0.00 | 0.00 | 35 | 1013.9 |
| 20260504232004 | 76 | 261 | 2.0 | 8.0 | 0.00 | 0.00 | 0.00 | 37 | 1013.8 |
| 20260504231511 | 76 | 252 | 2.0 | 8.0 | 0.00 | 0.00 | 0.00 | 39 | 1013.8 |
| 20260504231004 | 76 | 252 | 3.0 | 9.0 | 0.00 | 0.00 | 0.00 | 36 | 1013.9 |
| 20260504230503 | 76 | 232 | 2.0 | 9.0 | 0.00 | 0.00 | 0.00 | 36 | 1014.0 |
| 20260504230005 | 76 | 254 | 6.0 | 9.0 | 0.00 | 0.00 | 0.00 | 33 | 1014.0 |
| 20260504225507 | 77 | 192 | 3.0 | 9.0 | 0.00 | 0.00 | 0.00 | 33 | 1014.0 |
| 20260504225004 | 77 | 254 | 5.0 | 9.0 | 0.00 | 0.00 | 0.00 | 34 | 1014.1 |
| 20260504224504 | 77 | 248 | 4.0 | 10.0 | 0.00 | 0.00 | 0.00 | 32 | 1014.0 |
| 20260504224003 | 77 | 219 | 3.0 | 10.0 | 0.00 | 0.00 | 0.00 | 33 | 1014.0 |
| 20260504223503 | 77 | 195 | 4.0 | 9.0 | 0.00 | 0.00 | 0.00 | 31 | 1013.9 |
| 20260504223009 | 78 | 257 | 4.0 | 10.0 | 0.00 | 0.00 | 0.00 | 30 | 1014.1 |
| 20260504222505 | 78 | 232 | 6.0 | 9.0 | 0.00 | 0.00 | 0.00 | 30 | 1014.2 |
| 20260504222006 | 78 | 76 | 2.0 | 8.0 | 0.00 | 0.00 | 0.00 | 33 | 1014.1 |
| 20260504221508 | 78 | 246 | 4.0 | 11.0 | 0.00 | 0.00 | 0.00 | 32 | 1014.2 |
| 20260504221003 | 78 | 226 | 6.0 | 11.0 | 0.00 | 0.00 | 0.00 | 32 | 1014.3 |
| 20260504220507 | 78 | 219 | 4.0 | 11.0 | 0.00 | 0.00 | 0.00 | 30 | 1014.2 |
| 20260504220006 | 78 | 238 | 6.0 | 12.0 | 0.00 | 0.00 | 0.00 | 27 | 1014.2 |
| 20260504215507 | 78 | 207 | 4.0 | 12.0 | 0.00 | 0.00 | 0.00 | 32 | 1014.2 |
| 20260504215005 | 78 | 218 | 4.0 | 11.0 | 0.00 | 0.00 | 0.00 | 31 | 1014.3 |
| 20260504214506 | 78 | 156 | 4.0 | 11.0 | 0.00 | 0.00 | 0.00 | 33 | 1014.4 |
| 20260504214004 | 78 | 218 | 2.0 | 13.0 | 0.00 | 0.00 | 0.00 | 32 | 1014.3 |
| 20260504213506 | 78 | 192 | 7.0 | 13.0 | 0.00 | 0.00 | 0.00 | 30 | 1014.3 |
| 20260504213006 | 78 | 175 | 6.0 | 11.0 | 0.00 | 0.00 | 0.00 | 33 | 1014.4 |
| 20260504212504 | 78 | 240 | 5.0 | 15.0 | 0.00 | 0.00 | 0.00 | 33 | 1014.2 |
| 20260504212007 | 78 | 237 | 4.0 | 15.0 | 0.00 | 0.00 | 0.00 | 30 | 1014.2 |
| 20260504211513 | 78 | 247 | 7.0 | 13.0 | 0.00 | 0.00 | 0.00 | 31 | 1014.2 |
| 20260504211007 | 79 | 213 | 5.0 | 12.0 | 0.00 | 0.00 | 0.00 | 30 | 1014.2 |
| 20260504210503 | 79 | 128 | 5.0 | 12.0 | 0.00 | 0.00 | 0.00 | 32 | 1014.3 |
| 20260504210018 | 79 | 219 | 3.0 | 11.0 | 0.00 | 0.00 | 0.00 | 30 | 1014.3 |
| 20260504205507 | 79 | 175 | 5.0 | 11.0 | 0.00 | 0.00 | 0.00 | 32 | 1014.4 |
| 20260504205004 | 79 | 189 | 2.0 | 11.0 | 0.00 | 0.00 | 0.00 | 32 | 1014.5 |
| 20260504204532 | 79 | 205 | 4.0 | 9.0 | 0.00 | 0.00 | 0.00 | 32 | 1014.6 |
| 20260504204004 | 79 | 299 | 4.0 | 10.0 | 0.00 | 0.00 | 0.00 | 31 | 1014.4 |
| 20260504203503 | 78 | 188 | 4.0 | 12.0 | 0.00 | 0.00 | 0.00 | 34 | 1014.3 |
| 20260504203003 | 78 | 223 | 4.0 | 13.0 | 0.00 | 0.00 | 0.00 | 36 | 1014.4 |
| 20260504202504 | 78 | 223 | 7.0 | 13.0 | 0.00 | 0.00 | 0.00 | 31 | 1014.5 |
| 20260504202002 | 78 | 146 | 2.0 | 7.0 | 0.00 | 0.00 | 0.00 | 35 | 1014.6 |
| 20260504201502 | 78 | 220 | 2.0 | 7.0 | 0.00 | 0.00 | 0.00 | 32 | 1014.7 |
| 20260504201004 | 78 | 211 | 4.0 | 10.0 | 0.00 | 0.00 | 0.00 | 32 | 1014.9 |
| 20260504200502 | 78 | 223 | 5.0 | 10.0 | 0.00 | 0.00 | 0.00 | 33 | 1014.9 |
| 20260504200008 | 78 | 157 | 3.0 | 6.0 | 0.00 | 0.00 | 0.00 | 37 | 1014.9 |
| 20260504195506 | 77 | 155 | 1.0 | 10.0 | 0.00 | 0.00 | 0.00 | 35 | 1014.9 |
| 20260504195002 | 77 | 327 | 4.0 | 12.0 | 0.00 | 0.00 | 0.00 | 31 | 1015.1 |
| 20260504194509 | 78 | 196 | 7.0 | 12.0 | 0.00 | 0.00 | 0.00 | 33 | 1015.2 |
| 20260504194003 | 78 | 264 | 2.0 | 6.0 | 0.00 | 0.00 | 0.00 | 31 | 1015.2 |
| 20260504193502 | 77 | 223 | 2.0 | 8.0 | 0.00 | 0.00 | 0.00 | 32 | 1015.2 |
| 20260504193010 | 77 | 223 | 3.0 | 11.0 | 0.00 | 0.00 | 0.00 | 34 | 1015.4 |
| 20260504192503 | 77 | 210 | 1.0 | 11.0 | 0.00 | 0.00 | 0.00 | 37 | 1015.5 |
| 20260504192005 | 76 | 205 | 4.0 | 13.0 | 0.00 | 0.00 | 0.00 | 36 | 1015.5 |
| 20260504191507 | 77 | 230 | 8.0 | 13.0 | 0.00 | 0.00 | 0.00 | 36 | 1015.5 |
| 20260504191003 | 77 | 261 | 5.0 | 11.0 | 0.00 | 0.00 | 0.00 | 37 | 1015.5 |
| 20260504190502 | 77 | 332 | 2.0 | 11.0 | 0.00 | 0.00 | 0.00 | 38 | 1015.6 |
| 20260504190007 | 77 | 265 | 2.0 | 11.0 | 0.00 | 0.00 | 0.00 | 35 | 1015.8 |
| 20260504185502 | 77 | 228 | 5.0 | 11.0 | 0.00 | 0.00 | 0.00 | 35 | 1015.8 |
| 20260504185002 | 76 | 199 | 2.0 | 10.0 | 0.00 | 0.00 | 0.00 | 35 | 1016.0 |
| 20260504184503 | 77 | 191 | 4.0 | 11.0 | 0.00 | 0.00 | 0.00 | 37 | 1015.9 |
| 20260504184006 | 76 | 210 | 4.0 | 11.0 | 0.00 | 0.00 | 0.00 | 34 | 1016.0 |
| 20260504183503 | 76 | 270 | 3.0 | 9.0 | 0.00 | 0.00 | 0.00 | 37 | 1016.0 |
| 20260504183003 | 76 | 266 | 5.0 | 9.0 | 0.00 | 0.00 | 0.00 | 40 | 1016.1 |
| 20260504182503 | 76 | 202 | 2.0 | 8.0 | 0.00 | 0.00 | 0.00 | 38 | 1016.1 |
| 20260504182005 | 76 | 198 | 1.0 | 8.0 | 0.00 | 0.00 | 0.00 | 38 | 1016.2 |
| 20260504181504 | 75 | 223 | 2.0 | 8.0 | 0.00 | 0.00 | 0.00 | 36 | 1016.2 |
| 20260504181004 | 76 | 209 | 3.0 | 9.0 | 0.00 | 0.00 | 0.00 | 35 | 1016.4 |
| 20260504180507 | 76 | 175 | 3.0 | 9.0 | 0.00 | 0.00 | 0.00 | 37 | 1016.4 |
| 20260504180010 | 75 | 261 | 2.0 | 6.0 | 0.00 | 0.00 | 0.00 | 37 | 1016.4 |
| 20260504175503 | 75 | 220 | 4.0 | 6.0 | 0.00 | 0.00 | 0.00 | 37 | 1016.5 |
| 20260504175001 | 75 | 78 | 1.0 | 6.0 | 0.00 | 0.00 | 0.00 | 39 | 1016.6 |
| 20260504174503 | 75 | 338 | 3.0 | 6.0 | 0.00 | 0.00 | 0.00 | 40 | 1016.7 |
| 20260504174005 | 74 | 98 | 0.0 | 7.0 | 0.00 | 0.00 | 0.00 | 39 | 1016.7 |
| 20260504173503 | 74 | 263 | 3.0 | 7.0 | 0.00 | 0.00 | 0.00 | 39 | 1016.8 |
| 20260504173005 | 74 | 234 | 4.0 | 7.0 | 0.00 | 0.00 | 0.00 | 36 | 1016.9 |
| 20260504172502 | 74 | 223 | 2.0 | 10.0 | 0.00 | 0.00 | 0.00 | 37 | 1016.9 |
| 20260504172004 | 73 | 153 | 3.0 | 10.0 | 0.00 | 0.00 | 0.00 | 41 | 1017.0 |
| 20260504171516 | 74 | 236 | 4.0 | 9.0 | 0.00 | 0.00 | 0.00 | 38 | 1017.1 |
| 20260504171005 | 74 | 153 | 2.0 | 9.0 | 0.00 | 0.00 | 0.00 | 40 | 1017.1 |
| 20260504170506 | 74 | 82 | 2.0 | 9.0 | 0.00 | 0.00 | 0.00 | 37 | 1017.1 |
| 20260504151004 | 69 | 254 | 3.0 | 9.0 | 0.00 | 0.00 | 0.00 | 50 | 1017.7 |
| 20260504150504 | 68 | 246 | 5.0 | 9.0 | 0.00 | 0.00 | 0.00 | 49 | 1017.8 |
| 20260504141008 | 65 | 191 | 5.0 | 9.0 | 0.00 | 0.00 | 0.00 | 55 | 1017.9 |
| 20260504140503 | 65 | 221 | 5.0 | 11.0 | 0.00 | 0.00 | 0.00 | 56 | 1018.0 |
| 20260504130509 | 59 | 215 | 3.0 | 5.0 | 0.00 | 0.00 | 0.00 | 67 | 1018.1 |
| 20260504110502 | 45 | 236 | 0.0 | 1.0 | 0.00 | 0.00 | 0.00 | 84 | 1017.4 |
| 20260504100503 | 46 | 236 | 0.0 | 1.0 | 0.00 | 0.00 | 0.00 | 82 | 1017.2 |
| 20260504082003 | 46 | 211 | 0.0 | 3.0 | 0.00 | 0.00 | 0.00 | 82 | 1017.3 |
| 20260504081518 | 46 | 211 | 1.0 | 3.0 | 0.00 | 0.00 | 0.00 | 82 | 1017.3 |
| 20260504081003 | 46 | 226 | 1.0 | 3.0 | 0.00 | 0.00 | 0.00 | 81 | 1017.3 |
| 20260504080504 | 46 | 212 | 0.0 | 2.0 | 0.00 | 0.00 | 0.00 | 82 | 1017.4 |